Total_Precipitation_Accumulation
1.16 1.10 1.18 1.43 1.49 1.52 1.74 1.82 1.62 1.53 1.53 1.48 1.41 1.33 1.28 1.19 1.17 1.13 1.47 1.88 2.30 2.81 3.23 3.16 2.76 2.27 2.12 2.28 2.26 2.21 2.16 2.40 2.98 3.09 2.98 2.92 2.81 2.81 2.57 2.21 1.94 1.81 1.71
1.19 1.21 1.15 1.31 1.56 1.62 1.68 1.72 1.63 1.55 1.50 1.53 1.47 1.47 1.44 1.24 1.30 1.30 1.38 1.48 1.70 2.09 2.79 3.22 2.99 2.53 2.35 2.36 2.27 2.26 2.20 2.26 2.87 3.13 3.13 3.04 2.95 2.96 2.56 2.19 2.09 1.96 1.92
1.21 1.21 1.11 1.20 1.45 1.67 1.72 1.70 1.63 1.64 1.46 1.38 1.48 1.54 1.52 1.40 1.43 1.48 1.43 1.40 1.34 1.58 2.18 2.83 2.97 2.78 2.67 2.69 2.50 2.41 2.40 2.50 2.66 2.97 3.13 3.14 3.03 2.87 2.50 2.17 1.95 1.98 2.02
1.19 1.28 1.21 1.17 1.37 1.62 1.87 2.00 1.86 1.76 1.63 1.52 1.58 1.60 1.53 1.57 1.55 1.54 1.48 1.46 1.46 1.37 1.56 1.88 2.27 2.67 2.84 2.98 2.81 2.67 2.46 2.26 2.25 2.56 2.88 3.08 3.11 2.84 2.69 2.41 2.12 2.07 2.21
1.11 1.33 1.44 1.38 1.43 1.65 1.78 1.86 1.89 1.76 1.73 1.65 1.52 1.50 1.47 1.57 1.64 1.48 1.46 1.47 1.54 1.50 1.44 1.31 1.46 1.82 2.34 3.02 3.18 2.81 2.62 2.36 2.13 2.22 2.49 2.81 3.02 2.92 2.78 2.56 2.27 2.09 2.16
1.32 1.46 1.59 1.62 1.64 1.75 1.78 1.96 2.17 1.97 1.77 1.74 1.58 1.47 1.44 1.49 1.53 1.54 1.60 1.59 1.59 1.55 1.51 1.36 1.29 1.17 1.51 2.21 2.79 2.71 2.75 2.60 2.27 2.17 2.30 2.41 2.64 2.80 2.59 2.51 2.47 2.22 2.07
1.56 1.67 1.77 1.85 1.82 1.76 1.86 2.07 2.47 2.36 2.01 1.80 1.80 1.69 1.54 1.50 1.54 1.51 1.66 1.74 1.65 1.60 1.61 1.53 1.38 1.24 1.14 1.31 1.83 2.38 2.62 2.78 2.59 2.37 2.32 2.43 2.49 2.70 2.58 2.40 2.55 2.51 2.34
1.68 1.74 1.94 2.06 2.04 2.04 2.14 2.20 2.48 2.68 2.43 2.20 2.19 2.36 2.12 1.91 1.56 1.30 1.38 1.52 1.58 1.62 1.59 1.60 1.50 1.35 1.30 1.23 1.19 1.65 2.10 2.45 2.66 2.53 2.38 2.40 2.50 2.65 2.72 2.55 2.53 2.70 2.65
1.87 1.83 1.92 2.12 2.14 2.14 2.22 2.41 2.73 3.06 3.04 2.75 2.49 2.66 2.41 2.14 2.04 1.53 1.24 1.31 1.46 1.57 1.60 1.67 1.62 1.49 1.44 1.46 1.29 1.19 1.36 1.75 2.37 2.65 2.63 2.52 2.52 2.59 2.70 2.73 2.86 2.79 2.79
1.80 1.79 1.89 2.08 2.25 2.38 2.51 2.58 2.57 2.97 3.30 3.12 2.91 2.53 2.22 2.08 2.23 2.08 1.61 1.33 1.37 1.42 1.48 1.49 1.59 1.66 1.61 1.55 1.44 1.09 1.00 1.26 2.03 2.77 2.97 2.74 2.53 2.50 2.71 2.83 2.80 2.60 2.57
1.93 1.82 1.84 1.90 1.95 2.07 2.24 2.38 2.45 2.70 2.93 3.11 3.09 2.86 2.57 2.39 1.95 1.94 2.03 1.78 1.52 1.30 1.28 1.40 1.57 1.64 1.64 1.54 1.55 1.21 0.99 0.93 1.31 2.10 2.73 2.88 2.75 2.68 2.84 2.90 2.70 2.50 2.41
1.94 1.80 1.72 1.80 1.81 1.83 1.98 2.10 2.22 2.50 2.71 2.84 2.92 2.83 2.73 2.67 2.35 2.07 1.91 1.88 1.74 1.51 1.34 1.34 1.40 1.49 1.57 1.52 1.39 1.38 1.14 0.90 0.90 1.19 1.71 2.30 2.57 2.67 2.79 2.85 2.78 2.58 2.59
1.55 1.53 1.43 1.45 1.58 1.66 1.84 1.92 1.89 1.97 2.14 2.35 2.54 2.59 2.63 2.55 2.47 2.38 2.22 2.01 1.78 1.46 1.43 1.34 1.31 1.41 1.44 1.54 1.50 1.62 1.25 0.98 0.88 0.90 1.10 1.43 1.75 2.08 2.43 2.64 2.79 2.85 2.89
1.20 1.16 1.16 1.15 1.21 1.29 1.52 1.75 1.76 1.78 1.83 1.91 2.00 2.29 2.47 2.44 2.46 2.24 2.14 2.16 1.94 1.63 1.44 1.24 1.14 1.19 1.27 1.39 1.66 1.75 1.26 1.12 0.93 0.93 1.01 1.07 1.21 1.38 1.74 2.16 2.38 2.57 2.70
0.92 0.92 0.96 1.05 1.11 1.11 1.21 1.35 1.54 1.62 1.70 1.76 1.77 1.94 2.11 2.21 2.19 2.01 2.04 2.14 2.03 1.74 1.54 1.36 1.27 1.20 1.19 1.25 1.53 1.44 1.27 1.23 1.10 1.04 1.01 1.00 1.03 1.07 1.22 1.46 1.68 1.80 1.90
0.82 0.83 0.83 0.89 0.97 1.00 1.09 1.20 1.24 1.34 1.43 1.60 1.77 1.90 1.93 1.97 2.04 1.95 1.93 2.04 2.04 1.85 1.62 1.40 1.23 1.18 1.24 1.18 1.36 1.26 1.36 1.45 1.15 1.01 0.96 0.99 0.96 0.90 0.86 0.93 1.07 1.20 1.28
0.66 0.66 0.72 0.82 0.86 0.89 0.93 0.94 0.98 1.03 1.10 1.21 1.29 1.44 1.64 1.83 1.93 1.94 1.98 2.03 2.06 1.93 1.67 1.52 1.27 1.24 1.36 1.30 1.28 1.23 1.33 1.39 1.18 1.07 0.93 0.88 0.89 0.84 0.82 0.79 0.80 0.86 0.97
0.64 0.64 0.70 0.75 0.76 0.84 0.87 0.86 0.86 0.90 1.02 1.11 1.13 1.17 1.28 1.54 1.70 1.82 1.90 1.93 1.99 1.95 1.77 1.72 1.63 1.40 1.33 1.30 1.41 1.48 1.42 1.40 1.35 1.35 1.21 0.99 0.91 0.89 0.84 0.80 0.76 0.73 0.76
0.81 0.83 0.81 0.82 0.78 0.82 0.85 0.83 0.85 0.88 0.91 0.97 1.00 1.02 1.12 1.26 1.41 1.50 1.60 1.73 1.81 1.92 1.89 1.69 1.74 1.68 1.45 1.39 1.41 1.49 1.55 1.65 1.53 1.49 1.54 1.36 1.15 1.05 0.96 0.88 0.81 0.78 0.77
0.70 0.72 0.80 0.85 0.92 0.97 0.95 0.90 0.89 0.89 0.85 0.86 0.92 1.00 1.03 1.06 1.24 1.46 1.56 1.64 1.70 1.81 1.91 1.82 1.75 1.73 1.57 1.49 1.47 1.50 1.63 1.75 1.76 1.55 1.45 1.39 1.33 1.22 1.10 1.00 0.90 0.86 0.85
0.57 0.57 0.66 0.75 0.85 0.95 0.99 0.99 0.86 0.75 0.76 0.80 0.80 0.81 0.89 0.98 1.08 1.29 1.40 1.63 1.68 1.81 1.87 1.90 1.82 1.66 1.53 1.48 1.45 1.44 1.54 1.76 1.83 1.78 1.64 1.44 1.32 1.15 1.05 1.02 1.02 1.00 0.95
0.53 0.53 0.58 0.56 0.59 0.64 0.82 0.83 0.72 0.60 0.64 0.72 0.78 0.79 0.79 0.83 0.90 0.97 1.02 1.26 1.47 1.61 1.71 1.71 1.75 1.63 1.49 1.43 1.53 1.56 1.55 1.60 1.74 1.74 1.56 1.60 1.54 1.34 1.18 1.05 1.14 1.19 1.16
0.52 0.51 0.46 0.42 0.43 0.49 0.56 0.56 0.62 0.61 0.61 0.66 0.73 0.81 0.85 0.82 0.90 0.99 1.00 1.07 1.18 1.23 1.37 1.49 1.53 1.49 1.47 1.42 1.51 1.57 1.56 1.48 1.42 1.52 1.47 1.54 1.56 1.42 1.27 1.18 1.20 1.16 1.15
0.48 0.53 0.46 0.42 0.46 0.46 0.51 0.58 0.61 0.60 0.70 0.77 0.77 0.75 0.85 0.91 0.98 1.15 1.14 1.22 1.15 1.05 1.06 1.13 1.29 1.35 1.30 1.40 1.50 1.69 1.78 1.63 1.49 1.52 1.47 1.39 1.34 1.29 1.20 1.19 1.23 1.09 1.03
0.44 0.40 0.44 0.57 0.56 0.57 0.66 0.61 0.54 0.60 0.73 0.81 0.76 0.77 0.87 0.96 1.13 1.25 1.27 1.28 1.17 1.10 1.18 1.26 1.33 1.41 1.42 1.47 1.56 1.66 1.72 1.72 1.61 1.56 1.44 1.30 1.20 1.19 1.19 1.15 1.13 1.15 1.08
0.36 0.38 0.42 0.55 0.60 0.65 0.66 0.53 0.50 0.61 0.73 0.82 0.82 0.81 1.01 1.01 1.11 1.16 1.21 1.32 1.33 1.21 1.18 1.19 1.22 1.25 1.25 1.33 1.58 1.63 1.75 1.82 1.67 1.58 1.44 1.32 1.27 1.37 1.42 1.24 1.09 1.06 1.04